Theta_e
306 306 306 305 304 303 303 302 300 298 298 299 301 300 300 302 303 306 310 312 311 310 310 308 304 301 303 315 318 318 316 314 316 313 316 317 323 320 321 319 318 319 318 326 332 331 330
305 306 306 306 305 304 303 301 299 298 298 299 299 300 299 299 301 302 304 309 311 310 309 309 304 302 314 313 313 317 317 319 319 315 318 318 320 319 319 320 320 319 318 322 332 332 332
305 305 306 305 305 305 303 302 301 299 297 298 300 299 298 298 297 300 302 304 309 308 308 309 304 305 310 308 311 313 314 315 319 318 318 321 321 320 320 320 320 319 319 317 334 333 332
305 305 305 304 304 304 304 303 302 301 299 297 297 298 299 298 297 296 300 302 307 306 308 309 305 308 310 308 313 313 314 314 318 320 321 321 321 320 321 319 319 319 319 318 323 335 331
304 305 304 304 304 303 303 303 303 302 302 299 297 295 297 298 296 296 298 302 304 306 310 308 305 308 313 314 313 313 312 313 316 319 322 322 320 320 320 319 318 318 318 318 319 331 334
303 304 304 304 303 303 303 304 303 303 303 301 299 294 294 296 296 296 299 303 308 311 309 309 310 311 313 313 313 313 313 312 314 318 318 320 317 318 318 317 319 319 318 319 323 335 333
303 304 304 304 304 304 304 304 304 304 303 302 300 297 292 294 293 296 300 307 310 314 313 315 313 311 311 314 314 313 313 312 312 314 316 320 317 315 317 318 319 320 320 321 331 334 334
303 303 303 304 304 303 304 304 303 303 304 303 300 298 294 292 292 297 301 310 313 311 313 313 315 317 317 316 315 314 315 310 310 312 315 319 320 317 318 318 320 320 320 324 329 333 333
301 302 302 303 303 303 303 303 303 303 303 303 302 298 296 292 293 304 307 311 310 313 315 315 314 316 318 317 316 312 312 311 311 312 313 318 320 320 319 319 320 318 318 319 327 331 331
301 300 301 302 302 303 303 303 303 301 302 303 302 300 297 292 301 302 309 309 308 313 320 315 315 314 316 317 314 314 313 313 311 311 312 314 319 320 319 320 319 318 319 320 327 329 335
300 300 299 300 301 300 300 300 300 301 300 302 301 300 297 292 298 304 305 305 308 316 323 313 314 315 315 316 313 312 313 313 312 311 311 314 315 318 320 319 319 319 321 322 319 324 331
301 300 300 299 299 299 298 299 299 299 300 300 301 300 297 293 301 304 304 306 313 320 322 313 313 315 315 315 314 313 311 311 314 314 312 312 315 316 317 319 320 320 322 322 321 320 322
299 300 300 300 298 298 298 297 298 299 299 300 300 300 297 296 301 299 302 308 317 321 311 311 317 316 315 316 315 312 311 311 312 314 314 313 312 315 317 317 318 319 319 321 321 322 330
298 298 299 299 300 298 297 298 297 298 298 299 300 300 298 296 298 303 302 312 315 313 313 312 318 318 317 316 315 314 312 311 313 313 310 311 313 315 317 317 318 319 318 324 325 334 332
298 298 298 299 299 299 298 297 298 298 298 299 300 300 299 298 297 303 304 313 310 312 310 311 316 319 317 316 317 315 314 312 312 314 311 311 314 317 317 319 319 322 320 319 324 330 332
298 297 297 297 298 299 298 297 297 298 299 298 300 300 300 298 300 301 300 308 310 310 312 314 314 319 318 317 316 315 315 314 312 314 314 314 317 317 317 318 319 322 322 324 324 329 333
297 297 297 297 298 298 298 297 297 297 298 298 300 299 299 298 303 303 301 301 306 307 308 313 316 317 319 318 317 317 317 315 314 315 315 314 314 318 319 320 319 320 322 324 324 329 332
295 295 296 297 298 298 298 297 297 296 297 298 300 302 301 303 304 304 302 301 303 305 306 309 313 319 320 320 318 318 317 315 315 316 315 314 318 317 319 320 319 319 321 323 325 327 330
295 295 295 296 297 298 297 296 295 297 297 299 301 298 302 303 303 303 302 301 302 303 305 309 312 317 317 321 323 319 318 316 317 316 315 314 317 317 324 321 320 320 322 322 325 326 329
297 296 296 296 295 297 297 296 294 296 297 299 300 301 299 303 302 303 304 304 303 304 308 307 309 310 314 322 321 321 317 320 317 317 321 317 321 324 325 322 321 321 321 323 325 326 335
298 297 297 296 296 295 296 295 295 295 296 299 300 301 300 301 303 303 303 304 306 304 306 309 311 313 314 322 323 322 319 319 320 322 321 320 323 324 325 324 322 322 321 321 322 326 334
298 299 297 297 296 295 294 296 296 296 296 299 299 301 301 302 303 305 303 303 302 305 308 312 309 310 315 320 322 325 319 320 319 320 322 323 323 325 326 325 324 323 321 320 329 330 330
297 297 297 297 296 296 295 295 295 295 296 298 297 300 300 301 301 304 302 304 306 307 309 309 310 314 319 321 317 319 323 323 321 320 324 324 324 326 327 325 325 325 322 322 326 329 328
296 297 297 296 295 296 295 295 295 296 296 295 297 299 300 300 300 301 301 302 305 306 310 312 311 313 315 315 321 327 327 324 322 324 324 325 328 329 326 326 326 325 323 323 324 327 326
295 297 297 298 296 296 294 296 296 295 296 297 297 300 300 299 300 301 301 302 303 304 310 311 314 315 316 316 329 328 327 324 326 324 326 327 329 328 324 329 328 325 324 322 327 327 323
295 296 297 296 296 296 296 296 296 295 296 297 296 299 300 300 299 300 300 303 304 304 313 314 314 314 317 317 329 329 329 326 325 323 325 324 328 326 327 327 329 326 324 325 324 327 321
296 297 298 297 297 296 296 296 296 295 296 296 297 298 300 300 300 301 301 302 301 308 310 315 315 316 317 319 330 328 326 325 324 324 325 325 328 327 327 329 326 324 324 322 326 327 319
296 296 296 298 297 296 296 296 295 296 297 297 298 298 299 300 300 301 301 303 303 303 311 316 319 316 320 325 332 329 326 325 323 322 324 326 329 328 327 327 326 322 322 323 321 320 317
296 296 297 297 297 296 295 295 295 297 297 297 298 298 299 299 300 299 300 300 301 301 304 307 313 318 321 327 333 332 325 325 325 325 324 327 325 326 327 325 323 321 323 321 320 318 316
Wind_Speed
11 10 10 10 12 13 14 15 17 18 18 19 20 21 23 24 25 26 26 27 28 29 30 31 29 21 11 4 8 6 6 6 5 10 8 6 7 5 6 7 7 5 6 9 21 25 22
12 11 11 11 11 12 13 15 17 19 18 20 20 22 23 25 25 27 28 29 30 30 31 32 25 16 3 5 6 3 5 6 2 7 7 12 8 9 7 5 4 5 7 7 16 16 10
12 12 12 12 13 13 15 16 17 17 19 20 20 22 25 26 27 27 29 30 31 32 31 31 20 9 5 15 9 10 8 10 8 10 8 23 23 4 6 7 7 10 7 7 17 11 9
12 12 12 13 14 14 15 15 17 17 17 19 21 22 25 27 30 29 29 30 32 34 31 23 14 3 8 14 12 16 14 16 12 16 20 21 12 3 2 7 9 7 6 4 6 9 10
13 12 13 14 14 15 15 15 16 17 18 19 21 23 25 28 30 30 30 29 35 35 21 12 5 4 10 11 8 22 15 12 14 16 10 10 5 2 6 4 6 5 7 8 10 13 9
14 13 13 14 14 14 15 15 15 17 18 20 21 23 24 28 30 30 29 31 29 11 1 3 8 4 8 5 9 10 14 16 8 4 5 2 2 2 2 2 7 7 7 8 6 4 19
15 15 15 14 14 14 14 15 15 15 18 20 21 22 24 28 29 30 31 20 6 3 3 8 5 5 8 8 4 7 13 11 6 5 7 5 3 8 12 13 11 12 14 12 11 15 9
17 17 16 16 15 15 14 14 15 16 16 19 20 23 24 28 29 27 19 4 11 7 9 16 23 20 33 17 8 6 11 8 6 9 7 5 15 12 14 13 14 15 14 2 3 15 12
17 18 18 17 17 16 15 15 16 17 15 18 18 20 25 27 27 13 16 13 26 14 4 10 12 10 12 11 8 11 9 7 7 5 9 11 13 17 15 14 14 10 6 5 7 12 15
20 20 19 18 18 18 17 16 16 17 16 16 18 19 22 25 8 24 6 26 33 18 3 7 9 10 10 8 9 22 13 9 5 13 14 10 18 17 13 10 9 7 7 8 10 7 6
22 22 22 20 18 19 20 20 19 17 16 14 17 17 19 14 19 10 21 31 30 5 2 7 10 11 15 15 6 12 31 7 11 13 9 9 7 12 16 13 6 10 5 4 11 7 5
22 23 22 21 20 21 20 20 20 19 16 15 15 14 16 13 10 10 22 26 10 2 9 6 9 11 12 20 9 4 10 9 7 7 10 13 8 11 15 10 8 7 3 4 4 2 3
24 23 23 23 23 22 22 22 21 20 17 14 14 12 13 12 6 20 24 11 2 6 6 6 10 17 16 15 18 7 11 15 13 10 13 13 10 10 9 6 7 6 4 1 3 2 5
27 27 26 25 25 24 24 22 21 20 18 14 14 12 15 14 9 12 11 2 10 8 13 3 11 13 14 13 15 20 7 12 11 7 4 8 7 15 7 10 9 8 8 5 6 4 1
28 27 27 27 27 26 24 23 21 20 18 14 12 14 16 17 11 6 3 8 7 8 10 9 5 11 12 14 7 17 18 14 19 20 9 10 11 5 12 7 8 5 6 7 3 4 5
29 30 29 29 27 27 26 23 22 20 18 14 14 9 21 14 16 8 2 18 13 13 17 18 8 7 12 15 12 17 11 16 17 20 19 6 3 12 16 5 8 9 7 2 3 5 4
28 28 28 27 28 27 26 24 22 21 18 15 14 3 12 18 21 2 6 10 16 26 20 11 14 10 11 10 16 10 8 14 21 17 19 20 1 10 5 9 8 5 3 4 5 5 5
33 31 30 28 26 27 25 24 22 21 19 18 6 4 8 34 6 3 12 8 7 26 21 17 14 16 16 10 14 18 14 11 12 13 20 15 6 8 8 7 13 9 9 7 4 3 3
38 36 34 31 29 28 27 26 24 23 22 17 3 3 19 26 8 12 9 19 17 26 24 10 12 11 14 10 3 16 17 17 10 16 10 12 4 6 6 4 4 5 5 5 3 3 4
43 41 39 36 33 30 29 28 27 25 25 24 3 4 6 8 3 10 12 16 20 17 23 23 22 23 24 8 6 8 16 8 22 10 13 12 6 7 6 9 6 6 6 3 2 3 4
40 43 43 41 39 36 33 30 29 28 28 26 5 5 7 6 9 13 8 9 13 15 20 16 9 25 20 7 7 4 8 6 5 10 9 9 6 5 4 6 7 7 7 7 5 8 5
36 39 37 46 44 40 35 34 31 29 29 25 3 4 2 1 7 9 15 12 22 19 17 24 23 31 19 13 7 8 4 4 6 1 6 2 5 3 4 10 11 9 11 5 17 19 25
31 34 34 40 47 40 37 35 34 31 29 11 10 7 2 3 3 5 6 10 12 16 16 27 25 20 13 8 8 10 9 10 9 8 4 6 6 4 5 9 6 4 7 10 12 19 29
31 31 29 38 39 40 36 35 33 31 32 14 7 6 3 3 4 5 10 14 16 23 20 22 22 22 20 10 9 7 7 7 10 5 7 6 7 4 6 4 4 4 7 13 13 20 17
18 20 20 37 37 38 38 35 32 31 29 22 19 8 3 3 5 8 15 16 15 21 24 21 29 13 5 6 4 2 1 2 5 7 5 8 5 3 5 4 3 4 3 8 19 13 27
13 17 24 31 36 37 37 34 32 30 31 32 33 15 1 2 3 5 12 9 11 14 13 20 24 7 3 2 3 5 6 6 5 5 5 6 5 4 4 6 4 6 7 26 16 11 18
11 15 23 30 37 36 35 33 31 30 34 35 13 24 5 2 3 5 6 7 4 5 4 16 4 6 4 2 3 4 5 8 7 12 6 8 3 6 3 3 2 8 18 9 7 12 20
4 16 17 27 33 34 31 29 29 31 33 33 20 16 7 2 4 8 8 9 6 6 5 7 3 3 2 4 3 4 5 5 7 12 15 10 7 5 4 4 4 9 15 14 6 23 24
4 9 16 25 27 29 28 27 28 30 31 30 7 15 10 2 4 14 20 27 26 25 7 5 8 9 5 3 3 4 4 3 8 11 5 2 7 6 5 6 8 13 8 12 25 25 23
Wind_Direction
325 321 314 322 331 342 345 351 354 355 353 349 346 342 337 334 336 337 336 329 329 332 335 335 334 336 344 295 253 262 327 301 295 200 210 224 264 263 267 263 311 300 279 85 106 91 89
314 316 317 309 310 319 332 339 349 350 350 348 345 343 340 338 330 328 330 331 322 324 326 331 328 331 294 267 237 242 339 307 261 191 223 238 247 246 263 285 341 291 328 119 123 122 119
305 311 309 307 309 303 316 326 335 344 345 344 343 344 342 338 333 326 319 322 323 318 317 323 316 319 265 243 259 289 295 287 273 220 239 237 249 266 314 321 279 290 304 306 137 143 130
299 302 304 305 307 306 306 312 322 331 340 342 339 339 339 338 337 330 320 313 319 311 310 310 300 261 251 267 275 281 261 274 251 245 237 264 326 338 40 323 342 331 303 253 171 160 170
295 296 302 300 302 304 305 305 310 317 326 337 338 336 334 336 338 332 324 314 303 307 301 288 289 211 264 302 240 246 231 243 253 248 265 286 25 336 337 279 325 287 252 242 265 168 125
294 290 293 295 297 299 301 299 300 305 315 326 335 336 332 331 336 334 326 311 308 311 316 203 267 291 261 238 232 219 220 230 246 205 274 204 9 226 275 105 237 250 270 260 177 44 82
295 293 291 290 293 297 299 297 298 291 303 316 327 335 331 329 333 333 330 341 19 15 323 234 200 250 293 330 286 189 212 201 237 220 200 188 185 220 221 212 229 243 258 276 121 145 84
293 291 289 288 289 294 294 295 294 298 291 304 320 328 332 328 330 327 320 278 315 312 298 276 265 262 271 280 295 251 227 169 181 223 171 241 233 224 234 245 226 239 255 122 117 111 92
286 288 286 286 285 288 291 292 292 294 292 294 310 324 329 328 330 345 324 324 344 355 277 274 222 227 230 207 237 254 190 190 191 200 208 206 232 213 235 252 263 267 220 243 174 78 97
277 283 286 286 283 281 283 286 287 287 291 286 300 316 326 330 340 339 310 328 341 343 295 268 212 224 197 222 238 232 238 160 220 203 226 229 245 252 254 249 241 264 227 250 135 138 181
279 275 278 280 280 280 281 282 284 285 287 279 290 307 319 327 310 331 322 318 331 310 292 219 191 182 172 178 156 207 217 194 195 204 174 233 215 235 244 251 243 241 288 242 227 188 91
278 278 271 274 273 279 282 279 280 283 283 275 278 296 310 325 333 325 325 321 333 206 241 271 150 161 147 196 209 256 165 197 221 240 255 252 248 218 237 258 252 257 182 284 337 78 351
278 276 274 266 268 268 275 277 275 276 276 271 264 279 287 297 291 321 328 334 177 230 243 220 170 164 177 189 210 219 171 187 196 195 228 257 263 259 223 232 276 249 97 280 329 312 233
276 275 272 267 260 260 264 268 270 267 267 263 255 266 274 271 288 297 340 254 225 242 254 335 162 166 194 180 207 216 201 203 206 211 176 209 260 238 227 197 209 206 163 170 206 182 238
274 272 268 264 259 255 254 262 263 260 257 251 246 258 266 270 235 241 82 214 220 217 208 270 193 181 195 213 167 195 222 217 204 203 186 186 236 225 213 210 178 230 212 213 239 249 95
271 271 268 264 256 249 248 252 255 252 246 234 218 241 250 244 212 142 126 235 242 264 321 345 293 208 183 212 209 182 196 216 208 194 205 251 228 220 205 197 224 157 206 189 278 215 146
271 269 265 261 255 247 242 245 247 245 235 222 205 234 254 208 167 148 227 239 263 275 297 315 320 297 242 182 219 189 215 235 201 197 196 229 123 280 219 193 170 240 238 245 161 121 191
268 264 262 257 251 240 235 238 240 237 223 204 204 214 240 164 185 189 236 253 236 277 298 292 298 277 239 200 196 212 212 212 188 182 191 208 183 228 229 181 184 194 204 189 136 199 103
262 257 255 251 244 237 231 231 237 232 212 187 217 214 183 174 203 223 267 279 254 258 268 279 314 310 335 306 316 202 222 216 236 190 190 199 219 257 318 130 184 166 217 214 131 106 173
259 252 247 243 239 234 228 229 232 228 211 197 213 200 217 206 217 239 246 259 253 251 270 252 272 293 290 290 265 234 201 221 223 206 188 158 187 171 198 191 164 199 227 182 142 217 113
272 249 243 236 229 228 225 225 227 225 211 193 210 210 177 193 219 218 227 258 293 247 256 267 260 247 249 275 300 272 182 196 250 177 156 130 175 181 263 303 193 186 189 229 202 128 116
263 256 251 233 224 220 218 217 220 216 207 203 192 215 178 202 156 217 225 240 251 259 261 261 236 264 275 251 270 300 179 155 202 228 126 127 170 128 291 291 227 191 204 168 100 94 116
260 255 250 256 203 212 210 215 216 216 201 200 205 287 117 200 185 194 220 240 274 262 259 252 249 270 274 290 299 272 224 266 183 145 135 131 120 110 257 248 227 145 170 117 120 135 139
266 257 248 206 205 207 206 210 212 210 207 195 224 202 128 231 195 219 267 266 276 287 276 266 244 249 268 309 301 246 233 218 126 150 136 132 125 120 217 65 54 272 89 113 106 139 128
263 230 227 204 198 199 206 206 207 210 209 201 216 270 156 229 234 268 264 256 270 290 280 272 271 242 314 324 311 189 123 72 155 160 138 124 118 174 124 84 117 10 59 110 116 123 135
245 221 199 192 193 199 203 204 206 209 202 201 222 255 196 126 221 279 268 287 272 279 290 270 253 257 336 301 277 196 177 159 141 153 181 151 133 124 88 117 174 204 100 111 96 127 152
240 212 203 198 198 200 204 204 204 206 198 202 223 230 227 188 262 189 218 247 303 320 282 249 204 233 159 244 245 199 156 146 150 169 174 188 128 151 127 134 11 169 145 121 108 176 158
206 199 205 191 194 192 197 198 198 198 196 197 219 238 196 215 261 210 205 224 248 245 267 346 320 262 129 198 245 215 145 192 131 180 187 176 159 172 125 109 157 147 147 159 163 141 146
169 176 170 178 180 181 187 189 193 194 189 196 206 221 217 187 245 260 249 240 237 244 258 306 300 298 200 194 276 313 113 95 140 175 164 169 166 150 164 193 177 152 131 133 137 144 147